Regional Weather Roundup
Issued by NWS New Orleans/Baton Rouge, LA

Home | Current Version | Previous Version | Text Only | Print | Product List | Glossary On
Versions: 1 2 3 4 5 6 7 8 9 10 11 12 13 14 15 16 17 18 19 20 21 22 23 24 25 26 27 28 29 30 31 32 33 34 35 36 37 38 39 40 41 42 43 44 45 46 47 48 49 50
663
ASUS44 KLIX 271505
RWRLIX
NEW ORLEANS REGIONAL WEATHER ROUNDUP
NATIONAL WEATHER SERVICE NEW ORLEANS LA
900 AM CST FRI FEB 27 2015

NOTE: "FAIR" INDICATES FEW OR NO CLOUDS BELOW 12,000 FEET WITH NO
      SIGNIFICANT WEATHER AND/OR OBSTRUCTIONS TO VISIBILITY.
      SKY/WX - SKY CONDITION AND SIGNIFICANT WEATHER.
      TMP - AIR TEMPERATURE.     DP    - DEWPOINT TEMPERATURE.
      RH  - RELATIVE HUMIDITY.   PRES  - PRESSURE.
      HI  - HEAT INDEX.          WCI   - WIND CHILL INDEX.

*  THESE STATIONS ARE NOT NWS OR FAA STATIONS AND ARE NOT UNDER
   NWS QUALITY CONTROL.

LAZ038-040-048-061>063-065>067-069-271600-
SOUTHEAST LOUISIANA

CITY           SKY/WX    TMP DP  RH WIND       PRES   REMARKS
N.O. AUDUBON   NOT AVBL
N.O. INTL ARPT PTSUNNY   41  31  67 NE17      30.40R
N.O. LAKEFRONT SUNNY     42  32  67 NE18      30.40R
SLIDELL        SUNNY     40  31  70 NE14      30.40R WCI  32
BATON ROUGE    CLOUDY    38  30  73 NE12      30.42R WCI  30
BOOTHVILLE     CLOUDY    44  37  76 NE15G24   30.36S
BELLE CHASSE   PTSUNNY   41  30  65 NE17      30.38R
BOGALUSA*        N/A     39  31  72 NE8G17    30.44R WCI  34
GALLIANO*      CLOUDY    43  35  72 MISG      30.37S
NEW ROADS*     CLOUDY    36  28  75 N9        30.44R WCI  29
GONZALES*        N/A     39  31  74 NE8G17    30.41R WCI  33
HAMMOND*       PTSUNNY   39  30  70 N8        30.43R WCI  34
HOUMA*         PTSUNNY   39  32  75 NE14G23   30.38R WCI  31
PORT FOURCHON* CLOUDY    41  36  81 NE17G24   30.40R

$$

MSZ070-080>082-271600-
SOUTHERN MISSISSIPPI

CITY           SKY/WX    TMP DP  RH WIND       PRES   REMARKS
MCCOMB         CLOUDY    34  26  72 NE8       30.42R WCI  27
GULFPORT       SUNNY     38  29  70 N15G26    30.38F WCI  29
BILOXI         SUNNY     39  30  70 NE16G23   30.38F WCI  30
PASCAGOULA     SUNNY     40  30  67 N14       30.39F WCI  32
STENNIS ARPT*  SUNNY     37  27  65 NE12G17   30.41R WCI  30

$$

COASTAL OBSERVATIONS
LAKE AND NEARSHORE STATIONS

STATION/POSITION TIME  TEMP    WIND        PRES    WAVE
                       AIR SEA DIR/SP/G            HT/PER
                 (UTC) (F)     (DEG/KT/KT) (MB)    (FT/S)
PASCAGOULA       1500   38      20/ 15/ 19 1028.3
WAVELAND YACHT   1500   36 44   40/ 15/ 20 1028.6
GRAND ISLE       1500   42 49   60/ 15/ 23 1028.2
SOUTHWEST PASS   1500   51 47   40/ 16/ 19 1027.8
NEW CANAL        1500   38      50/ 16/ 20 1029.4
SHELL BEACH      1500   39 48   40/ 20/ 22 1028.6

OFFSHORE STATIONS

STATION/POSITION TIME  TEMP    WIND        PRES    WAVE
                       AIR SEA DIR/SP/G            HT/PER
                 (UTC) (F)     (DEG/KT/KT) (MB)    (FT/S)
64 S DAUPHIN ISL 1428   47 64   40/ 23/ 29 1027.6    6/ 7

$$




USA.gov is the U.S. government's official web portal to all federal, state and local government web resources and services.